This is the latest recevied weather packets stored in our database for station/object KC9MWQ-13. If no packets are shown the sender has not sent any weather packets the latest 10 day(s).
| Time | Temp. | Humidity | Pressure | Rain* | Wind** | Luminosity | Snow |
|---|---|---|---|---|---|---|---|
| 1777857178 | 10.56° C | 90% | 1011.4 hPa | 0 mm | - | 0 W/m² | - |
| 1777856874 | 10.56° C | 90% | 1011.2 hPa | 0 mm | - | 0 W/m² | - |
| 1777856570 | 10.56° C | 90% | 1011.4 hPa | 0 mm | - | 0 W/m² | - |
| 1777856267 | 11.11° C | 90% | 1011.4 hPa | 0 mm | - | 0 W/m² | - |
| 1777855964 | 11.11° C | 90% | 1011.3 hPa | 0 mm | - | 0 W/m² | - |
| 1777855662 | 11.11° C | 89% | 1011.5 hPa | 0 mm | - | 0 W/m² | - |
| 1777855359 | 11.11° C | 89% | 1011.7 hPa | 0 mm | - | 0 W/m² | - |
| 1777855055 | 11.11° C | 89% | 1011.6 hPa | 0 mm | - | 0 W/m² | - |
| 1777854752 | 11.11° C | 88% | 1011.7 hPa | 0 mm | - | 0 W/m² | - |
| 1777854449 | 11.11° C | 88% | 1011.5 hPa | 0 mm | - | 0 W/m² | - |
| 1777854146 | 11.11° C | 88% | 1011.4 hPa | 0 mm | - | 1 W/m² | - |
| 1777853844 | 11.11° C | 86% | 1011.6 hPa | 0 mm | - | 1 W/m² | - |
| 1777853540 | 11.11° C | 86% | 1011.7 hPa | 0 mm | - | 3 W/m² | - |
| 1777853237 | 11.67° C | 86% | 1011.7 hPa | 0 mm | - | 2 W/m² | - |
| 1777852934 | 11.67° C | 86% | 1011.7 hPa | 0 mm | - | 7 W/m² | - |
| 1777852632 | 11.67° C | 85% | 1011.8 hPa | 0 mm | - | 11 W/m² | - |
| 1777852329 | 11.67° C | 86% | 1011.9 hPa | 0 mm | - | 7 W/m² | - |
| 1777852027 | 11.67° C | 85% | 1011.9 hPa | 0 mm | - | 9 W/m² | - |
| 1777851725 | 11.67° C | 84% | 1012 hPa | 0 mm | - | 12 W/m² | - |
| 1777851421 | 11.67° C | 84% | 1011.8 hPa | 0 mm | - | 23 W/m² | - |
| 1777851117 | 11.67° C | 84% | 1011.9 hPa | 0 mm | - | 22 W/m² | - |
| 1777850814 | 11.67° C | 83% | 1012 hPa | 0 mm | - | 26 W/m² | - |
| 1777850511 | 11.67° C | 83% | 1012 hPa | 0 mm | - | 35 W/m² | - |
| 1777850210 | 11.67° C | 83% | 1011.9 hPa | 0 mm | - | 46 W/m² | - |
| 1777849905 | 12.22° C | 82% | 1012 hPa | 0 mm | - | 48 W/m² | - |
* Rain latest hour (hover to see other rain measurements)
** Current wind speed in m/s (hover to see current wind gust speed)